Regional Weather Roundup
Issued by NWS Newport/Morehead, NC

Current Version | Previous Version | Text Only | Print | Product List | Glossary On
Versions: 1 2 3 4 5 6 7 8 9 10 11 12 13 14 15 16 17 18 19 20 21 22 23 24 25 26 27 28 29 30 31 32 33 34 35 36 37 38 39 40 41 42 43 44 45 46 47 48 49 50
155 ASUS42 KMHX 180925 RWRMHX WEATHER ROUNDUP FOR EASTERN NORTH CAROLINA NATIONAL WEATHER SERVICE NEWPORT/MOREHEAD CITY NC 400 AM EST WED JAN 18 2017 NOTE: "FAIR" INDICATES FEW OR NO CLOUDS BELOW 12,000 FEET WITH NO SIGNIFICANT WEATHER AND/OR OBSTRUCTIONS TO VISIBILITY NCZ015>017-031-032-045>047-102-103-181000- NORTH COAST CITY SKY/WX TMP DP RH WIND PRES REMARKS EDENTON CLOUDY 62 56 81 SW8 29.93F ELIZABETH CITY CLOUDY 59 56 89 MISG 29.92F KITTY HAWK NOT AVBL MANTEO CLOUDY 58 55 92 W13G18 29.93F $$ NCZ045>047-081-094-103-104-181000- CENTRAL COAST CITY SKY/WX TMP DP RH WIND PRES REMARKS FRISCO CLOUDY 62 57 83 SW14G22 29.97F HAZE $$ NCZ095-097-098-100-101-181000- SOUTHERN COAST CITY SKY/WX TMP DP RH WIND PRES REMARKS BEAUFORT PTCLDY 60 57 89 MISG 30.01F CEDAR ISLAND NOT AVBL JACKSONVILLE CLOUDY 62 58 86 SW8G16 29.99F PINEY ISLAND CLOUDY N/A N/A N/A SW13 29.99 WILMINGTON CLOUDY 63 58 83 SW12 30.02F $$ NCZ011>013-027>030-043-044-078>080-089-090>093-098-181000- COASTAL PLAIN CITY SKY/WX TMP DP RH WIND PRES REMARKS AHOSKIE MOCLDY 58 55 90 CALM 29.93S CLINTON CLOUDY 63 58 86 SW8 29.98F ELIZABETHTOWN PTCLDY 64 58 80 SW12G18 29.99F GOLDSBORO CLOUDY 62 61 96 SW7 29.94F GREENVILLE CLOUDY 63 59 88 SW8 29.98S HAVELOCK CLOUDY 61 56 83 SW9 30.00F KENANSVILLE CLOUDY 61 57 88 SW9 29.98F KINSTON CLOUDY 61 57 84 SW9 29.97F NEW BERN CLOUDY 61 56 83 SW8 29.99F RICHLANDS MOCLDY 61 57 87 SW8 29.99F ROCKY MOUNT CLOUDY 62 57 83 SW13 29.94F WASHINGTON CLOUDY 61 56 84 SW12 29.95F WHITEVILLE PTCLDY 62 57 85 SW9 30.02F $$ AMZ130-135-150-152-154-156-158-170-250-252-270-ANZ085-086-088-633-658-670-181000- MARINE OBSERVATIONS STATION/POSITION TIME TEMP WIND PRES WAVE SWELL AIR SEA DIR/SP/G HT/PER HT/PER (UTC) (F) (DEG/KT/KT) (MB) (FT/S) (FT/S) CHESAPEAKE LIGHT NOT AVBL 64 E VA BEACH 0850 58 56 230/ 19/ 21 1012.0 5/ 5 DUCK 0900 58 44 220/ 16/ 20 1012.4 2 E DUCK 0900 45 N/A 1/10 OREGON INLET 0900 200/ 14/ 15 N/A 13E OREGON INLT NOT AVBL HATTERAS CG 0900 62 53 230/ 11/ 16 1014.7 DIAMOND BUOY 0850 70 72 250/ 21/ 27 1014.9 7/ 6 2/10 CAPE LOOKOUT 0900 62 230/ 12/ 16 1015.6 BEAUFORT LAB 0900 58 50 250/ 5/ 10 1015.1 30 SE NEW RVR IN 0808 62 61 240/ 16/ 19 1016.7 30 SE NEW RVR IN 0843 61 N/A 4/ 5 27 SE WRIGHTSVLE NOT AVBL 5 SE WRIGHTSVLE 0808 59 230/ 14/ 21 1016.9 225 S CAPE HAT 0850 72 72 220/ 17/ 19 1019.7 4/ 5 2/10 41 SE CHARLESTON 0850 70 71 230/ 19/ 23 1018.5 4/ 4 2/ 8 $$

USA.gov is the U.S. government's official web portal to all federal, state and local government web resources and services.